Location: Berresheim
(50.3018°N, 7.2266°E)
Time: 06:58:27
(UTC+00:00)

Daily predictions for brighter satellites

Satellite Brightness Start Highest point End
(mag) Time Altitude Azimuth Time Altitude Azimuth Time Altitude Azimuth
Nadezhda 3 Rocket 4.1 16:51:33 10° S 16:57:48 72° E 17:04:09 10° NNE
Cosmos 1777 Rocket 4.2 16:53:27 10° NNW 16:58:32 49° ENE 17:03:35 10° SE
Cosmos 839 Rocket 4.1 16:52:53 10° NW 16:59:06 83° NE 17:05:59 10° SE
Unknown 3.7 16:55:40 10° WSW 16:59:49 75° NNW 17:03:59 10° ENE
Gbstr 26 Del rocket 4.0 16:54:31 10° WNW 17:00:11 88° SSW 17:07:12 10° ESE
NOAA 12 4.1 16:56:10 10° SSE 17:01:24 70° ENE 17:06:42 10° N
Unknown 3.7 16:57:21 10° WSW 17:01:30 75° NNW 17:05:39 10° ENE
Unknown 3.8 16:59:01 10° W 17:03:10 74° NNW 17:07:20 10° ENE
Cosmos 1242 Rocket 2.6 16:59:48 10° N 17:03:28 56° ENE 17:07:05 10° SSE
Cosmos 1758 Rocket 4.3 17:01:14 10° NNW 17:05:40 62° W 17:10:05 10° S
Unknown 3.8 17:02:21 10° W 17:06:30 72° NNW 17:10:39 10° ENE
SMAP 3.6 17:02:31 10° S 17:07:09 66° WSW 17:11:48 10° NNW
Starlink (trailer) 3.8 17:03:58 10° W 17:08:07 71° NNW 17:12:16 10° ENE
ATLAS 5 CENTAUR R/B 2.3 17:04:52 10° WSW 17:09:10 54° NW 17:14:05 10° NE
Unknown 3.8 17:05:39 10° W 17:09:48 71° NNW 17:13:57 10° ENE
Unknown 3.8 17:07:21 10° W 17:11:30 70° NNW 17:15:39 10° ENE
Meteor 1-16 Rocket 4.2 17:07:00 10° S 17:12:24 58° E 17:17:40 10° NNE
Meteor 1-11 4.4 17:09:57 10° N 17:15:38 57° ENE 17:21:20 10° SSE
Cosmos 1908 3.9 17:12:12 10° SSE 17:15:42 32° E 17:19:11 10° NNE
Cosmos 1953 2.7 17:12:19 10° SSW 17:16:23 70° W 17:20:28 10° N
ASTEX 1 3.6 17:11:51 10° NNE 17:16:41 51° E 17:21:32 10° SSE
Unknown 3.8 17:13:23 10° W 17:17:31 67° NNW 17:21:27 11° ENE
Cosmos 2278 Rocket 2.8 17:12:26 10° S 17:17:31 35° ESE 17:22:36 10° NE
FengYun 1-2 T 4.3 17:12:08 10° SSE 17:17:40 62° ENE 17:23:12 10° N
Unknown 3.8 17:13:35 10° W 17:17:42 67° NNW 17:21:36 11° ENE
Unknown 3.8 17:13:58 10° W 17:18:07 67° NNW 17:22:01 11° ENE
Unknown 3.8 17:16:49 10° W 17:20:57 66° N 17:24:45 12° ENE
Unknown 3.8 17:19:03 10° W 17:23:11 66° N 17:26:53 13° ENE
Cosmos 1844 3.9 17:18:12 10° SSW 17:23:57 80° WNW 17:29:47 10° NNE
Cosmos 1726 2.1 17:20:49 10° S 17:24:24 57° E 17:28:00 10° NNE
Unknown 3.9 17:20:50 10° W 17:24:58 64° N 17:28:35 13° ENE
SKYMED 2 3.8 17:21:06 10° NNE 17:25:19 46° E 17:29:30 10° S
Unknown 3.1 17:22:33 10° WNW 17:25:59 89° NNE 17:29:01 13° ESE
Abrixas rocket 3.4 17:23:36 10° SSW 17:26:12 25° SSE 17:28:08 14° ESE
Unknown 3.9 17:24:10 10° W 17:28:17 63° N 17:31:46 14° ENE
Unknown 3.9 17:24:19 10° W 17:28:26 64° N 17:31:55 14° ENE
YAOGAN 1 2.7 17:24:47 10° SE 17:28:59 52° ENE 17:33:13 10° N
Unknown 3.6 17:25:36 10° WNW 17:29:18 58° N 17:32:10 16° E
Unknown 3.9 17:25:42 10° W 17:29:50 64° N 17:33:16 15° ENE
Cosmos 2058 4.2 17:26:52 10° NNE 17:30:05 21° ENE 17:32:43 12° ESE
FALCON 9 DEB 3.1 17:27:56 10° WNW 17:31:25 86° NNE 17:34:14 15° ESE
ATLAS 3B R/B 4.2 17:29:17 10° SE 17:31:53 12° ESE 17:32:24 12° E
Cosmos 2228 3.4 17:27:49 10° SSW 17:32:10 69° WNW 17:36:31 10° N
Cosmos 2084 4.3 17:28:02 10° WSW 17:32:26 52° NW 17:36:48 10° NE
CSL-04 Rocket 3.7 17:27:32 10° SSE 17:32:59 64° ENE 17:38:24 10° N
Unknown 3.9 17:28:56 10° W 17:33:04 63° N 17:36:21 15° ENE
Cosmos 489 Rocket 4.4 17:27:37 10° S 17:33:45 66° ESE 17:39:55 10° NNE
Lacrosse 5 1.8 17:29:13 10° WNW 17:34:18 79° NNE 17:39:03 12° ESE
H-2A R/B 3.7 17:33:28 14° ENE 17:35:28 17° NE 17:38:46 10° NNE
Unknown 3.9 17:32:21 10° W 17:36:28 62° N 17:39:37 17° ENE
Cosmos 2263 Rocket 4.4 17:32:36 10° W 17:36:45 20° NW 17:40:55 10° N
Envisat 3.2 17:32:30 10° S 17:37:35 79° WSW 17:42:42 10° NNW
Cosmos 1726 Rocket 4.0 17:33:45 10° SSW 17:38:06 64° WNW 17:42:27 10° N
Unknown 3.9 17:34:04 10° W 17:38:11 62° N 17:41:15 17° ENE
Unknown 3.9 17:35:44 10° W 17:39:50 61° N 17:42:51 18° ENE
Shenzhou-11 Module 4.3 17:38:09 10° SW 17:39:52 15° S 17:41:34 10° SSE
Cosmos 921 Rocket 3.5 17:35:43 10° SSW 17:40:11 67° WNW 17:44:38 10° NNE
CENTAUR R/B 4.0 17:37:48 10° SE 17:40:48 14° ESE 17:40:48 14° ESE
Unknown 3.9 17:37:24 10° W 17:41:31 61° N 17:44:27 18° ENE
Cosmos 1898 Rocket 4.4 17:37:31 10° N 17:42:08 29° NE 17:45:15 17° ESE
Unknown 3.1 17:41:01 10° WNW 17:44:33 90° NE 17:46:48 21° ESE
Unknown 3.9 17:40:46 10° W 17:44:52 60° N 17:47:39 20° ENE
Cosmos 1356 3.5 17:42:53 10° SSW 17:46:20 78° WNW 17:49:48 10° N
Unknown 3.9 17:42:28 10° W 17:46:36 60° N 17:49:18 20° ENE
Falcon 9 debris 3.2 17:43:57 10° WNW 17:47:24 75° SSW 17:49:37 20° ESE
Meteor 2-10 3.9 17:42:24 10° S 17:47:27 87° ESE 17:52:32 10° NNE
NOAA 11 4.3 17:42:48 10° SE 17:48:05 53° ENE 17:53:21 10° N
Unknown 3.9 17:44:04 10° W 17:48:11 60° N 17:50:50 21° ENE
Cosmos 1328 4.5 17:44:43 10° NNW 17:48:39 57° W 17:52:31 10° S
Unknown 3.9 17:45:42 10° W 17:49:48 60° N 17:52:23 21° ENE
Cosmos 1833 Rocket 2.7 17:44:18 10° NNW 17:49:58 88° ENE 17:55:35 10° SSE
Unknown 3.9 17:46:31 10° W 17:50:37 59° N 17:53:10 22° ENE
Unknown 3.9 17:48:50 10° W 17:52:57 60° N 17:55:24 23° ENE
IRS-1A Rocket 4.5 17:48:16 10° SE 17:53:29 46° ENE 17:58:44 10° N
YAOGAN 6 3.0 17:52:19 10° S 17:55:57 66° W 17:59:33 10° NNW
Unknown 3.9 17:52:14 10° W 17:56:21 59° N 17:58:39 24° ENE
Cosmos 1939 Rocket 3.0 17:52:35 10° SSE 17:56:28 51° ENE 18:00:27 10° N
USA 116 3.2 17:53:51 10° NNE 17:57:00 57° ESE 18:00:21 10° S
Unknown 3.6 17:53:37 10° WNW 17:57:25 60° N 17:59:13 28° E
Unknown 3.9 17:53:54 10° W 17:58:01 59° N 18:00:14 25° ENE
Unknown 3.9 17:55:48 10° W 17:59:54 58° N 18:02:03 26° ENE
Unknown 3.9 17:57:14 10° W 18:01:20 59° N 18:03:26 27° ENE
Cosmos 2058 Rocket 3.8 17:57:10 10° SSW 18:01:26 56° WNW 18:05:45 10° N
USA 238 DEB 3.9 17:55:53 10° SSW 18:02:15 48° ESE 18:08:11 13° NE
USA 238 3.9 17:56:00 10° SSW 18:02:22 48° ESE 18:08:16 13° NE
Unknown 3.9 17:58:52 10° W 18:02:59 58° N 18:05:00 28° ENE
Unknown 3.9 18:02:15 10° W 18:06:22 58° N 18:08:15 29° ENE
Unknown 3.4 18:03:02 10° WNW 18:06:32 66° SSW 18:08:00 31° SE
Unknown 3.9 18:03:54 10° W 18:08:01 58° N 18:09:49 30° ENE
CZ-2D R/B 3.1 18:04:31 10° SSE 18:08:21 76° ENE 18:12:15 10° N
Unknown 3.9 18:05:36 10° W 18:09:42 58° N 18:11:26 31° ENE
Cosmos 1300 3.0 18:06:08 10° SSE 18:09:44 42° E 18:13:22 10° NNE
SJ 16-02 2.3 18:06:29 10° N 18:10:17 28° NE 18:10:34 28° ENE
Unknown 3.9 18:07:15 10° W 18:11:21 58° N 18:13:01 32° ENE
COSMO-SKYMED 1 3.1 18:09:09 10° N 18:13:27 61° WNW 18:17:44 10° SSW
Cosmos 1461 3.7 18:09:44 10° NW 18:13:41 48° WSW 18:17:44 10° SSE
Unknown 3.9 18:10:40 10° W 18:14:46 58° N 18:16:17 35° ENE
Unknown 3.6 18:11:21 10° WNW 18:15:15 63° N 18:16:22 41° ENE
Cosmos 2061 Rocket 4.3 18:09:37 10° N 18:15:33 42° ENE 18:19:06 22° SE
Unknown 3.9 18:11:48 10° W 18:15:54 58° N 18:17:22 36° ENE
Unknown 3.9 18:12:28 10° W 18:16:35 58° N 18:18:00 36° ENE
Unknown 3.8 18:12:48 10° WNW 18:16:49 58° N 18:18:05 38° ENE
Unknown 3.9 18:14:10 10° W 18:18:16 58° N 18:19:38 37° ENE
Cosmos 2082 Rocket 2.3 18:12:54 10° NNW 18:18:39 82° WSW 18:24:20 10° SSE
Ariane Rocket 2.9 18:15:06 10° SSE 18:20:11 79° ENE 18:25:19 10° NNW
Cosmos 1459 Rocket 4.0 18:14:05 10° N 18:20:14 59° ENE 18:26:27 10° SSE
Unknown 3.9 18:16:22 10° WNW 18:20:25 58° N 18:21:37 40° ENE
Unknown 3.9 18:17:18 10° W 18:21:24 58° N 18:22:38 40° ENE
CZ-2C R/B 4.3 18:22:04 26° ENE 18:22:22 26° ENE 18:27:01 10° N
Unknown 3.9 18:20:39 10° WNW 18:24:45 58° N 18:25:50 42° NE
CZ-4 R/B 3.2 18:21:45 10° SSW 18:25:35 34° W 18:29:29 10° NNW
Cosmos 2084 Rocket 3.5 18:21:19 10° NW 18:25:47 80° SW 18:27:37 34° SE
NOSS 3-2 (A) 3.5 18:20:21 10° SSW 18:25:59 54° ESE 18:29:49 24° NE
Unknown 3.9 18:22:17 10° WNW 18:26:24 58° N 18:27:25 44° NE
ATLAS CENTAUR R/B 3.4 18:23:23 10° NNW 18:26:36 18° NNE 18:27:18 17° NNE
Unknown 3.9 18:23:58 10° WNW 18:28:04 58° N 18:29:02 45° NE
Unknown 3.9 18:25:37 10° WNW 18:29:43 58° N 18:30:36 46° NE
Meteor 2-1 Rocket 4.2 18:26:23 10° S 18:31:42 52° E 18:37:07 10° NNE
Cosmos 1766 Rocket 4.2 18:27:37 10° N 18:30:55 36° NE 18:30:55 36° NE
HJ-1C 3.2 18:32:27 76° SSE 18:32:41 88° ENE 18:36:04 10° NNW
Cosmos 44 4.2 18:29:17 10° S 18:32:32 30° SSE 18:32:32 30° SSE
Cosmos 1937 Rocket 3.6 18:30:42 10° NNW 18:35:43 50° ENE 18:36:31 46° E
Unknown 3.8 18:32:15 10° WNW 18:36:22 59° N 18:36:58 52° NE
Cosmos 990 Rocket 3.9 18:32:44 10° NNW 18:37:56 66° ENE 18:39:26 45° SE
Unknown 3.8 18:33:58 10° WNW 18:38:05 59° N 18:38:36 54° NE
Okean 3 Rocket 3.6 18:34:05 10° N 18:38:36 60° ENE 18:38:58 58° E
Unknown 3.8 18:35:35 10° WNW 18:39:41 59° N 18:40:09 55° NE
Resurs 01 Rocket 3.6 18:42:28 17° NNE 18:42:28 17° NNE 18:43:54 10° N
Unknown 3.8 18:37:16 10° WNW 18:41:22 59° N 18:41:45 56° NNE
Cosmos 1727 Rocket 4.1 18:36:41 10° SSW 18:42:51 76° W 18:49:04 10° N
Unknown 3.8 18:38:56 10° WNW 18:43:03 60° N 18:43:21 58° NNE
In-Cosmos 22 Rocket 4.0 18:37:51 10° N 18:43:17 82° ENE 18:46:48 23° SSE
Unknown 3.8 18:42:15 10° WNW 18:46:23 60° N 18:46:33 60° NNE
Cosmos 2173 Rocket 3.9 18:41:03 10° N 18:47:21 89° E 18:53:32 10° S
Cosmos 1076 Rocket 4.2 18:43:42 10° NNW 18:47:58 55° W 18:52:12 10° S
Starlink (trailer) 3.8 18:43:53 10° WNW 18:48:00 61° N 18:48:05 60° NNE
Unknown 3.8 18:45:34 10° WNW 18:49:40 61° N 18:49:42 61° N
NOSS 3-2 (C) 3.5 18:45:26 10° SSW 18:51:04 53° ESE 18:51:57 49° E
SJ-6B 4.2 18:52:53 28° N 18:52:53 28° N 18:54:48 10° N
Unknown 3.8 18:47:16 10° WNW 18:51:21 61° N 18:51:21 61° N
Cosmos 1864 Rocket 4.4 18:46:12 10° N 18:52:17 58° ENE 18:53:32 49° ESE
Cosmos 1802 Rocket 3.9 18:46:29 10° N 18:52:58 83° E 18:57:43 19° SSE
ADEOS Rocket 3.6 18:45:55 10° NNE 18:53:20 48° E 19:00:13 10° S
ATLAS 5 CENTAUR R/B 3.8 18:51:14 10° WNW 18:54:56 22° NNW 18:57:39 15° NNE
Cosmos 1812 Rocket 4.4 18:51:29 10° SSW 18:55:49 52° WNW 19:00:13 10° N
Unknown 3.9 18:53:17 10° WNW 18:57:05 60° NNW 18:57:05 60° NNW
Unknown 3.9 18:53:25 10° WNW 18:57:11 60° NNW 18:57:11 60° NNW
SPOT 3 Rocket 3.4 18:57:17 65° ESE 18:57:43 69° ENE 19:02:54 10° N
Unknown 3.9 18:53:52 10° WNW 18:57:40 60° NNW 18:57:40 60° NNW
Unknown 4.0 18:56:40 10° WNW 19:00:21 59° NNW 19:00:21 59° NNW
Cosmos 2123 Rocket 4.0 19:01:06 53° E 19:01:06 53° E 19:06:54 10° NNE
Cosmos 2278 Rocket 3.1 18:55:57 10° SW 19:01:27 49° NW 19:06:58 10° NNE
Abrixas rocket 4.4 18:58:45 10° WSW 18:59:58 21° WSW 18:59:58 21° WSW
Unknown 4.1 18:58:57 10° WNW 19:02:32 57° NNW 19:02:32 57° NNW
Cosmos 2297 3.6 18:58:16 10° SSW 19:03:56 71° ESE 19:04:47 61° ENE
Unknown 4.1 19:00:43 10° WNW 19:04:14 56° NW 19:04:14 56° NW
Cosmos 2058 3.9 19:03:12 10° NNW 19:07:15 46° W 19:08:59 29° SSW
Unknown 4.5 19:03:43 10° WNW 19:06:23 42° W 19:06:23 42° W
Unknown 4.2 19:04:02 10° WNW 19:07:25 53° NW 19:07:25 53° NW
Unknown 4.3 19:04:11 10° WNW 19:07:33 53° NW 19:07:33 53° NW
Cosmos 1725 Rocket 3.9 19:02:34 10° N 19:08:53 74° E 19:10:07 58° SE
Cosmos 2233 Rocket 4.2 19:02:55 10° N 19:08:30 50° ENE 19:08:30 50° ENE
Unknown 4.3 19:05:35 10° WNW 19:08:54 52° NW 19:08:54 52° NW
Cosmos 1000 Rocket 4.4 19:03:40 10° S 19:09:53 86° W 19:16:12 10° N
Cosmos 2151 3.7 19:08:27 10° NNW 19:11:41 50° NNW 19:11:41 50° NNW
Unknown 4.4 19:08:49 10° WNW 19:12:00 48° NW 19:12:00 48° NW
Cosmos 2100 Rocket 4.5 19:07:02 10° NNW 19:13:06 58° W 19:19:06 10° S
H-2A R/B 2.0 19:14:06 80° ENE 19:14:06 80° ENE 19:19:31 10° NNW
Lacrosse 5 3.4 19:12:35 10° WNW 19:16:54 29° SW 19:18:16 25° SSW
ATLAS 3B R/B 2.9 19:14:40 10° SSW 19:19:45 48° S 19:19:45 48° S
ARGOS 3.1 19:23:54 79° N 19:23:54 79° N 19:29:02 10° NNW
Cosmos 1898 Rocket 4.1 19:19:22 10° NNW 19:24:30 53° WSW 19:25:34 45° SSW
Cosmos 1238 Rocket 4.4 19:19:11 10° N 19:24:35 49° NE 19:24:35 49° NE
CENTAUR R/B 3.0 19:24:00 10° SSW 19:28:05 46° S 19:28:05 46° S
Cosmos 2016 Rocket 4.3 19:25:37 10° NNW 19:31:49 65° W 19:34:31 35° SSW
SJ 16-02 3.1 19:44:53 10° NW 19:47:34 30° WNW 19:47:34 30° WNW
USA 238 DEB 4.2 19:46:34 10° WSW 19:53:11 54° NW 19:55:39 38° NNE
USA 238 4.2 19:46:40 10° WSW 19:53:18 55° NW 19:55:43 38° NNE
Cosmos 2227 Rocket 4.4 19:56:19 10° N 19:58:17 14° NNE 19:58:17 14° NNE
CZ-2C R/B 4.0 20:03:08 51° NW 20:03:08 51° NW 20:07:32 10° NNW
Cosmos 2297 Rocket 4.4 20:01:12 10° N 20:03:06 15° N 20:03:06 15° N
ATLAS CENTAUR R/B 4.0 20:02:07 10° NW 20:03:29 19° NNW 20:03:29 19° NNW
Resurs 01 Rocket 4.3 20:20:03 16° NNW 20:20:03 16° NNW 20:20:59 10° NNW
NOSS 3-2 (A) 4.3 20:11:10 10° WSW 20:17:01 47° NNW 20:17:15 46° NNW
ADEOS Rocket 4.3 20:31:29 10° N 20:38:46 47° WNW 20:45:37 10° SW
ATLAS 5 CENTAUR R/B 4.4 20:37:24 10° NW 20:39:11 17° NNW 20:39:11 17° NNW
